Time,TemperatureF,DewpointF,PressureIn,WindDirection,WindDirectionDegrees,WindSpeedMPH,WindSpeedGustMPH,Humidity,HourlyPrecipIn,Conditions,Clouds,dailyrainin,SoftwareType,DateUTC
2013-04-08 00:22:00,56.4,56.4,30.10,SSW,192,0.0,4.0,100,0.00,,,0.00,WeatherDisplay:10.37,2013-04-08 04:22:00,
2013-04-08 00:59:00,56.7,56.7,30.09,SSE,162,0.0,7.0,100,0.00,,,0.00,WeatherDisplay:10.37,2013-04-08 04:59:00,
2013-04-08 01:59:00,56.4,56.4,30.09,South,181,0.0,6.0,100,0.00,,,0.00,WeatherDisplay:10.37,2013-04-08 05:59:00,
2013-04-08 02:59:00,56.4,56.4,30.08,SW,219,2.0,7.0,100,0.00,,,0.00,WeatherDisplay:10.37,2013-04-08 06:59:00,
2013-04-08 03:59:00,57.0,57.0,30.08,SSW,213,1.0,9.0,100,0.00,,,0.00,WeatherDisplay:10.37,2013-04-08 07:59:00,
2013-04-08 04:59:00,56.8,56.8,30.08,SW,236,1.0,10.0,100,0.00,,,0.00,WeatherDisplay:10.37,2013-04-08 08:59:00,
2013-04-08 05:59:00,56.2,56.2,30.09,SW,220,1.0,8.0,100,0.00,,,0.00,WeatherDisplay:10.37,2013-04-08 09:59:00,
2013-04-08 06:59:00,56.2,56.2,30.11,WSW,238,1.0,8.0,100,0.00,,,0.00,WeatherDisplay:10.37,2013-04-08 10:59:00,
2013-04-08 07:59:00,56.8,56.8,30.14,WSW,237,1.0,9.0,100,0.00,,,0.00,WeatherDisplay:10.37,2013-04-08 11:59:00,
2013-04-08 09:59:00,67.2,67.2,30.12,WSW,250,5.0,16.0,100,0.00,CLR,,0.00,WeatherDisplay:10.37,2013-04-08 13:59:00,
2013-04-08 11:59:00,73.8,73.8,30.12,SW,236,2.0,22.0,100,0.00,,,0.00,WeatherDisplay:10.37,2013-04-08 15:59:00,
2013-04-08 12:59:00,76.7,35.0,30.09,SW,234,2.0,15.0,22,0.00,CLR,,0.00,WeatherDisplay:10.37,2013-04-08 16:59:00,
2013-04-08 13:59:00,76.9,40.4,30.06,SSW,204,6.0,17.0,27,0.00,CLR,,0.00,WeatherDisplay:10.37,2013-04-08 17:59:00,
2013-04-08 15:59:00,77.9,43.1,30.02,SSW,207,2.0,18.0,29,0.00,CLR,,0.00,WeatherDisplay:10.37,2013-04-08 19:59:00,
2013-04-08 16:59:00,77.7,42.0,30.01,South,183,0.0,16.0,28,0.00,CLR,,0.00,WeatherDisplay:10.37,2013-04-08 20:59:00,
2013-04-08 17:59:00,76.7,40.2,30.01,SW,218,1.0,15.0,27,0.00,CLR,,0.00,WeatherDisplay:10.37,2013-04-08 21:59:00,
2013-04-08 18:59:00,75.1,38.8,30.01,SSW,195,2.0,14.0,27,0.00,CLR,,0.00,WeatherDisplay:10.37,2013-04-08 22:59:00,
2013-04-08 19:59:00,71.8,33.0,30.03,SSW,208,2.0,12.0,24,0.00,CLR,,0.00,WeatherDisplay:10.37,2013-04-08 23:59:00,
2013-04-08 20:59:00,68.4,23.2,30.04,SSW,210,0.0,5.0,18,0.00,CLR,,0.00,WeatherDisplay:10.37,2013-04-09 00:59:00,
2013-04-08 21:59:00,64.9,14.5,30.06,SSW,210,0.0,3.0,14,0.00,CLR,,0.00,WeatherDisplay:10.37,2013-04-09 01:59:00,
2013-04-08 22:59:00,64.3,4.1,30.06,SSW,194,1.0,7.0,9,0.00,CLR,,0.00,WeatherDisplay:10.37,2013-04-09 02:59:00,
2013-04-08 23:59:00,64.9,-4.0,30.06,South,183,1.0,10.0,6,0.00,CLR,,0.00,WeatherDisplay:10.37,2013-04-09 03:59:00,